This is the latest recevied weather packets stored in our database for station/object K9UO. If no packets are shown the sender has not sent any weather packets the latest 10 day(s).
| Time | Temp. | Humidity | Pressure | Rain* | Wind** | Luminosity | Snow |
|---|---|---|---|---|---|---|---|
| 1777087827 | 15.56° C | 1% | 1008 hPa | 0 mm | - | - | - |
| 1777086921 | 15.56° C | 1% | 1007.9 hPa | 0 mm | - | - | - |
| 1777086031 | 15.56° C | 1% | 1008 hPa | 0 mm | - | - | - |
| 1777085113 | 15.56° C | 1% | 1007.8 hPa | 0 mm | - | - | - |
| 1777084211 | 15.56° C | 1% | 1007.8 hPa | 0 mm | - | - | - |
| 1777083307 | 15.56° C | 1% | 1007.6 hPa | 0 mm | - | - | - |
| 1777082403 | 15.56° C | 1% | 1007.5 hPa | 0 mm | - | - | - |
| 1777081561 | 15.56° C | 1% | 1007.4 hPa | 0 mm | - | - | - |
| 1777080656 | 15.56° C | 1% | 1007.5 hPa | 0.25 mm | - | - | - |
| 1777079750 | 15.56° C | 1% | 1007.2 hPa | 0.25 mm | - | - | - |
| 1777078863 | 16.11° C | 1% | 1007.1 hPa | 0.51 mm | - | - | - |
| 1777077954 | 16.11° C | 1% | 1006.9 hPa | 0.76 mm | - | - | - |
| 1777077045 | 16.11° C | 1% | 1006.8 hPa | 1.27 mm | - | - | - |
| 1777076132 | 17.22° C | 1% | 1006.7 hPa | 2.54 mm | - | - | - |
| 1777075228 | 17.22° C | 1% | 1006.7 hPa | 3.05 mm | - | - | - |
| 1777074324 | 17.22° C | 1% | 1006.4 hPa | 5.59 mm | - | - | - |
| 1777073447 | 17.22° C | 1% | 1006.4 hPa | 4.83 mm | - | - | - |
| 1777072517 | 17.22° C | 1% | 1006.2 hPa | 3.56 mm | - | - | - |
| 1777071612 | 17.78° C | 1% | 1006 hPa | 2.79 mm | - | - | - |
| 1777070708 | 17.78° C | 1% | 1005.5 hPa | 0.51 mm | - | - | - |
| 1777069801 | 17.78° C | 1% | 1005.3 hPa | 0.76 mm | - | - | - |
| 1777068957 | 17.78° C | 1% | 1005.1 hPa | 0.76 mm | - | - | - |
| 1777068053 | 17.22° C | 1% | 1005 hPa | 1.02 mm | - | - | - |
| 1777067149 | 17.22° C | 1% | 1005.4 hPa | 0.51 mm | - | - | - |
| 1777066245 | 17.22° C | 1% | 1005.8 hPa | 1.78 mm | - | - | - |
* Rain latest hour (hover to see other rain measurements)
** Current wind speed in m/s (hover to see current wind gust speed)